Change the Weather History Date:

Wednesday, October 31, 2012

  Actual Average (KBLI) Record (KBLI)
Temperature  
Mean Temperature 55 °F 47 °F  
Max Temperature 60 °F 54 °F 67 °F (1958)
Min Temperature 50 °F 40 °F 20 °F (1984)
Degree Days  
Heating Degree Days 10 18  
Month to date heating degree days 471  
Cooling Degree Days 0 0  
Month to date cooling degree days 0  
Year to date cooling degree days 42  
Growing Degree Days 5 (Base 50)    
Moisture  
Dew Point 52 °F    
Average Humidity 94    
Maximum Humidity 100    
Minimum Humidity 77    
Precipitation  
Precipitation 0.47 in 0.16 in 1.06 in (1967)
Month to date precipitation 3.68  
Year to date precipitation 25.81  
Sea Level Pressure  
Sea Level Pressure 29.64 in    
Wind  
Wind Speed 5 mph (SE)    
Max Wind Speed 14 mph    
Max Gust Speed 25 mph    
Visibility 7 miles    
Events Rain    
T = Trace of Precipitation, MM = Missing Value Source: NWS Daily Summary

Daily Weather History Graph

Daily Weather History Graph

Search for Another Location

Airport or City:

Trip Planner

Search our weather history database for the weather conditions in past years. The results will help you decide how hot, cold, wet, or windy it might be!

Date:

Astronomy

Oct. 31, 2012 Rise Set
Actual Time 7:57 AM PDT 5:52 PM PDT
Civil Twilight 7:24 AM PDT 6:25 PM PDT
Nautical Twilight 6:47 AM PDT 7:02 PM PDT
Astronomical Twilight 6:10 AM PDT 7:38 PM PDT
Moon 6:57 PM PDT (10/31) 9:53 AM PDT (10/31)
Length of Visible Light 11h 00m
Length of Day
9h 54m
Waning Gibbous, 97% of the Moon is Illuminated
Oct 31
Waning Gibbous
Nov 6
Last Quarter
Nov 13
New
Nov 20
First Quarter
Nov 28
Full

Hourly Weather History & Observations

Time (PDT) Temp. Dew Point Humidity Pressure Visibility Wind Dir Wind Speed Gust Speed Precip Events Conditions
12:15 AM 53.6 °F 53.6 °F 100% 29.71 in 7.0 mi East 4.6 mph - N/A Rain Light Rain
12:35 AM 53.6 °F 53.6 °F 100% 29.72 in 7.0 mi Calm Calm - N/A Rain Light Rain
12:55 AM 51.8 °F 51.8 °F 100% 29.72 in 6.0 mi Calm Calm - N/A Rain Light Rain
1:15 AM 51.8 °F 51.8 °F 100% 29.72 in 4.0 mi Calm Calm - N/A Rain Light Rain
1:35 AM 51.8 °F 51.8 °F 100% 29.71 in 5.0 mi Calm Calm - N/A Rain Light Rain
1:55 AM 50.0 °F 50.0 °F 100% 29.71 in 5.0 mi Calm Calm - N/A Rain Light Rain
2:15 AM 50.0 °F 50.0 °F 100% 29.71 in 4.0 mi Calm Calm - 0.01 in Rain Rain
2:35 AM 50.0 °F 50.0 °F 100% 29.71 in 3.0 mi Calm Calm - 0.03 in Rain Heavy Rain
2:55 AM 50.0 °F 50.0 °F 100% 29.71 in 4.0 mi Calm Calm - 0.03 in Rain Light Rain
3:15 AM 50.0 °F 50.0 °F 100% 29.70 in 4.0 mi Calm Calm - N/A Rain Light Rain
3:35 AM 51.8 °F 51.8 °F 100% 29.70 in 3.0 mi East 3.5 mph - N/A Rain Light Rain
3:55 AM 50.0 °F 50.0 °F 100% 29.69 in 3.0 mi East 6.9 mph - N/A Rain Rain
4:15 AM 50.0 °F 50.0 °F 100% 29.69 in 3.0 mi ENE 6.9 mph - 0.02 in Rain Rain
4:35 AM 50.0 °F 50.0 °F 100% 29.69 in 3.0 mi East 8.1 mph - 0.07 in Rain Heavy Rain
4:55 AM 50.0 °F 50.0 °F 100% 29.69 in 3.0 mi ENE 5.8 mph - 0.14 in Rain Rain
5:15 AM 50.0 °F 50.0 °F 100% 29.68 in 3.0 mi ENE 5.8 mph - 0.06 in Rain Heavy Rain
5:35 AM 50.0 °F 50.0 °F 100% 29.68 in 3.0 mi East 5.8 mph - 0.12 in Rain Heavy Rain
5:55 AM 50.0 °F 50.0 °F 100% 29.67 in 4.0 mi ENE 4.6 mph - 0.15 in Rain Rain
6:15 AM 50.0 °F 50.0 °F 100% 29.67 in 3.0 mi ENE 3.5 mph - 0.02 in Rain Heavy Rain
6:35 AM 50.0 °F 50.0 °F 100% 29.67 in 5.0 mi East 3.5 mph - 0.07 in Rain Heavy Rain
6:55 AM 50.0 °F 50.0 °F 100% 29.65 in 4.0 mi East 5.8 mph - 0.10 in Rain Heavy Rain
7:15 AM 50.0 °F 50.0 °F 100% 29.65 in 6.0 mi ENE 4.6 mph - N/A Rain Light Rain
7:35 AM 50.0 °F 50.0 °F 100% 29.65 in 5.0 mi ENE 5.8 mph - N/A Rain Light Rain
7:55 AM 50.0 °F 50.0 °F 100% 29.64 in 7.0 mi East 6.9 mph - N/A Rain Light Rain
8:15 AM 50.0 °F 50.0 °F 100% 29.64 in 8.0 mi East 5.8 mph - N/A Rain Light Rain
8:35 AM 50.0 °F 50.0 °F 100% 29.64 in 8.0 mi ENE 3.5 mph - N/A Rain Light Rain
8:55 AM 50.0 °F 50.0 °F 100% 29.64 in 5.0 mi ENE 9.2 mph - N/A Rain Light Rain
9:15 AM 50.0 °F 50.0 °F 100% 29.63 in 4.0 mi NE 8.1 mph - N/A Rain Light Rain
9:35 AM 50.0 °F 50.0 °F 100% 29.62 in 3.0 mi ENE 6.9 mph - N/A Rain Light Rain
9:55 AM 50.0 °F 50.0 °F 100% 29.62 in 6.0 mi Calm Calm - N/A Rain Light Rain
10:15 AM 50.0 °F 50.0 °F 100% 29.61 in 5.0 mi East 9.2 mph - N/A Rain Light Rain
10:35 AM 50.0 °F 50.0 °F 100% 29.61 in 5.0 mi NE 3.5 mph - N/A Rain Light Rain
10:55 AM 53.6 °F 53.6 °F 100% 29.60 in 7.0 mi South 3.5 mph - N/A Rain Light Rain
11:15 AM 55.4 °F 53.6 °F 94% 29.59 in 5.0 mi NW 3.5 mph - N/A Rain Light Rain
11:35 AM 51.8 °F 50.0 °F 94% 29.59 in 8.0 mi North 3.5 mph - N/A Rain Light Rain
11:55 AM 59.0 °F 53.6 °F 82% 29.59 in 10.0 mi SSE 6.9 mph 19.6 mph N/A Rain Light Rain
12:15 PM 59.0 °F 53.6 °F 82% 29.58 in 10.0 mi SSE 9.2 mph 25.3 mph N/A   Mostly Cloudy
12:55 PM 60.8 °F 53.6 °F 77% 29.55 in 10.0 mi SSE 9.2 mph - N/A   Scattered Clouds
1:15 PM 60.8 °F 53.6 °F 77% 29.55 in 10.0 mi South 6.9 mph 18.4 mph N/A   Scattered Clouds
1:35 PM 60.8 °F 53.6 °F 77% 29.54 in 10.0 mi South 11.5 mph 20.7 mph N/A   Partly Cloudy
1:55 PM 59.0 °F 53.6 °F 82% 29.54 in 10.0 mi South 6.9 mph 20.7 mph N/A   Mostly Cloudy
2:15 PM 59.0 °F 53.6 °F 82% 29.54 in 10.0 mi South 9.2 mph 25.3 mph N/A   Overcast
2:35 PM 59.0 °F 53.6 °F 82% 29.54 in 10.0 mi South 6.9 mph 18.4 mph N/A   Overcast
2:55 PM 59.0 °F 53.6 °F 82% 29.54 in 10.0 mi South 13.8 mph 19.6 mph N/A   Overcast
3:35 PM 57.2 °F 53.6 °F 88% 29.55 in 10.0 mi South 11.5 mph 21.9 mph N/A   Scattered Clouds
3:55 PM 57.2 °F 53.6 °F 88% 29.55 in 10.0 mi South 11.5 mph 20.7 mph N/A Rain Light Rain
4:35 PM 57.2 °F 53.6 °F 88% 29.57 in 7.0 mi South 11.5 mph 18.4 mph N/A Rain Light Rain
4:55 PM 55.4 °F 53.6 °F 94% 29.57 in 7.0 mi South 12.7 mph 18.4 mph N/A Rain Light Rain
5:35 PM 55.4 °F 53.6 °F 94% 29.60 in 3.0 mi South 6.9 mph 16.1 mph 0.04 in Rain Rain
5:55 PM 55.4 °F 53.6 °F 94% 29.60 in 7.0 mi South 10.4 mph 16.1 mph 0.05 in Rain Light Rain
6:15 PM 55.4 °F 53.6 °F 94% 29.62 in 8.0 mi SW 13.8 mph - N/A Rain Light Rain
6:35 PM 53.6 °F 53.6 °F 100% 29.63 in 10.0 mi SSW 8.1 mph - N/A   Overcast
6:55 PM 55.4 °F 53.6 °F 94% 29.63 in 10.0 mi South 11.5 mph - N/A   Overcast
7:15 PM 55.4 °F 53.6 °F 94% 29.64 in 10.0 mi South 9.2 mph - N/A   Mostly Cloudy
7:35 PM 55.4 °F 53.6 °F 94% 29.64 in 10.0 mi SSW 10.4 mph - N/A   Mostly Cloudy
7:55 PM 55.4 °F 53.6 °F 94% 29.64 in 10.0 mi South 9.2 mph - N/A   Scattered Clouds
8:15 PM 53.6 °F 53.6 °F 100% 29.64 in 9.0 mi South 9.2 mph - N/A Rain Light Rain
8:35 PM 55.4 °F 51.8 °F 88% 29.64 in 9.0 mi South 9.2 mph - N/A Rain Light Rain
8:55 PM 55.4 °F 51.8 °F 88% 29.65 in 10.0 mi South 9.2 mph - N/A   Partly Cloudy
9:15 PM 55.4 °F 51.8 °F 88% 29.65 in 10.0 mi South 11.5 mph 17.3 mph N/A   Partly Cloudy
9:35 PM 55.4 °F 51.8 °F 88% 29.66 in 10.0 mi South 8.1 mph - N/A   Clear
9:55 PM 55.4 °F 50.0 °F 82% 29.66 in 10.0 mi South 9.2 mph 16.1 mph N/A   Clear
10:15 PM 55.4 °F 50.0 °F 82% 29.67 in 10.0 mi South 5.8 mph - N/A   Partly Cloudy
10:35 PM 55.4 °F 50.0 °F 82% 29.67 in 10.0 mi South 10.4 mph - N/A   Clear
10:55 PM 53.6 °F 50.0 °F 88% 29.67 in 10.0 mi South 12.7 mph - N/A   Clear
11:15 PM 53.6 °F 50.0 °F 88% 29.67 in 10.0 mi South 9.2 mph - N/A   Clear
11:35 PM 53.6 °F 50.0 °F 88% 29.67 in 10.0 mi South 6.9 mph - N/A   Scattered Clouds
11:55 PM 55.4 °F 50.0 °F 82% 29.67 in 10.0 mi South 10.4 mph - N/A   Scattered Clouds